Aeroporto :
LOGIN :

Iscrizione | Disclaimer

   EN    FR    IT 

 










Sommario :    VFR   VFR Marginale   IFR   IFR Intensivo   IFR Molto Intensivo
Visibilità : 
Base nubi : 
>= 8 km
>= 3000ft
5 / 8 km
1000 / 3000 ft
1500m / 5 km
500 / 1000 ft
800 / 1500m
200 / 500 ft
< 800m
< 200 ft
Simboli :   Temporali  Nebbia  Neve Forte  Precipitazioni Forti  Vento > 20 kt
SIGMETs :   Varie  Temporali  Ghiacco  Turbolenza  Onda orograficha  Ceneri Vulcaniche






- Altitudine del aeroporto : 46 ft
- Codice IATA : GPA


LGRX - Araxos

ULTIMO METAR :
  • 012050Z VRB02KT 9999 SCT018 SCT080 10/06 Q1012

METARs OBSOLETI :
  • 011950Z 29005KT 9999 SCT018 BKN080 11/06 Q1012
  • 011850Z 30008KT 9999 -RA BKN018 BKN080 10/07 Q1012

TAF TAF LGRX
Valido dal 01 a 21 ore il 02 a 06 ore UTC


012000Z 0121/0206 32015KT 9999 FEW010 BKN020 BKN080
BECMG 0121/0123 FEW010 SCT020
PROB30
TEMPO 0203/0206 5000 BR SCT010



MetMap, La meteo Aeronautica in un colpo d'occhio ! - Copyright ORBIFLY Dicembre 2007 - Disclaimer

ORBIFLY MET'MAP TEAM :

Programmazione e sviluppo : Alexandra Zaïnal
Concezione : Baudouin d'Aumeries
Aiuto per la programmazione : Marc-Olivier Méhu
Supporto tecnico e logistico : Manuel Goepfert
Aiuto per la traduzione : Arnaldo La Scala

Contatto : metmap@orbifly.com




FONTI E CREDITI :

   NOAA